{"data":{"norad_id":52744,"intl_designator":"2022-057N","name":"GHGSAT-C5","alt_names":[],"object_type":"PAYLOAD","status":"ACTIVE","operator":null,"country":"CA","launch_date":"2022-05-25","launch_site_code":"AFETR","launch_vehicle":null,"mission":null,"orbit_class":"UNKNOWN","rcs_meters":null,"size_class":null,"mass_kg":null,"dimensions":null,"purposes":[],"wikipedia_slug":null,"has_3d_model":false,"image_url":null,"decayed_at":null,"tle_current":{"epoch":"2026-05-25T04:32:00.597120Z","epoch_age_seconds":52107,"freshness":"FRESH","line1":"1 52744U 22057N   26145.18889580  .00006361  00000+0  19590-3 0  9995","line2":"2 52744  97.6655 291.5411 0006616 188.5424 171.5706 15.33991950222015","mean_motion":15.3399195,"eccentricity":0.0006616,"inclination_deg":97.6655,"raan_deg":291.5411,"arg_perigee_deg":188.5424,"mean_anomaly_deg":171.5706,"bstar":0.0001959,"rev_number":22201,"period_min":93.872722083059,"perigee_km":459.38961716057,"apogee_km":468.44302211312,"semimajor_km":6842.0533196368,"source":"CELESTRAK","updated_at":"2026-05-25T13:37:57.885317Z"}}}